Home   Weather   Waglisla   Past weeks
Flag for Canada

Past Weather in Waglisla, British Columbia, Canada — Yesterday and Last 2 Weeks

Now
45 °F

Light rain. Mostly cloudy.


Feels Like: 38 °F
Forecast: 46 / 40 °F
Wind: 13 mph from Southeast

Location: Port Hardy

Current Time: Jan 21, 2020 at 12:32:36 pm

Latest Report: Jan 21, 2020 at 11:51 am


Visibility: 20 mi

Pressure: 29.41 "Hg

Humidity: 81%

Dew Point: 39 °F

Location of WaglislaLocation

Past Weather in Waglisla — Graph

°F

Waglisla Temperature Yesterday

Maximum temperature yesterday: 50 °F (at 3:00 pm)
Minimum temperature yesterday: 41 °F (at 8:00 am)
Average temperature yesterday: 46 °F

High & Low Weather Summary for the Past Weeks

 TemperatureHumidityPressure
High50 °F (Jan 20, 3:00 pm)100% (Jan 8, 5:00 am)30.17 "Hg (Jan 8, 5:00 am)
Low18 °F (Jan 14, 6:00 am)54% (Jan 14, 3:19 pm)29.10 "Hg (Jan 16, 2:07 am)
Average35 °F86%29.74 "Hg
* Reported Jan 6 11:00 am — Jan 21 11:00 am, Waglisla. Weather by CustomWeather, © 2020

Note: Actual official high and low records may vary slightly from our data, if they occured in-between our weather recording intervals... More about our weather records

Waglisla Weather History for the Previous 24 Hours

Scroll right to see more
 ConditionsComfort  
Time TempWeatherWind HumidityBarometerVisibility
11:00 am
Tue, Jan 21
43 °FLight rain. Partly sunny.8 mph93%29.39 "Hg10 mi
10:52 am43 °FLight rain. Partly sunny.8 mph93%29.39 "Hg10 mi
10:22 am43 °FLight rain. Mostly cloudy.8 mph93%29.39 "Hg12 mi
10:00 am43 °FMostly cloudy.14 mph87%29.39 "Hg20 mi
9:55 am43 °FPartly sunny.15 mph87%29.38 "Hg20 mi
9:07 am43 °FLight rain. Partly sunny.13 mph87%29.36 "Hg20 mi
8:00 am43 °FPassing clouds.13 mph87%29.36 "Hg12 mi
7:20 am41 °FPartly cloudy.3 mph100%29.35 "Hg10 mi
7:00 am41 °FLight rain. Mostly cloudy.5 mph100%29.35 "Hg8 mi
6:03 am43 °FLight rain. Mostly cloudy.5 mph93%29.34 "Hg8 mi
5:30 am45 °FRain. Overcast.22 mph93%29.32 "Hg6 mi
5:00 am45 °FLight rain. Mostly cloudy.18 mph93%29.30 "Hg8 mi
4:00 am45 °FLight rain. Passing clouds.23 mph93%29.31 "Hg10 mi
3:00 am46 °FLight rain. Passing clouds.22 mph87%29.34 "Hg10 mi
2:00 am46 °FLight rain. Passing clouds.21 mph87%29.36 "Hg10 mi
1:00 am46 °FLight rain. Passing clouds.24 mph87%29.40 "Hg10 mi
12:00 am46 °FLight rain. Partly cloudy.31 mph87%29.42 "Hg10 mi
11:51 pm
Mon, Jan 20
46 °FLight rain. Partly cloudy.28 mph87%29.43 "Hg10 mi
11:00 pm46 °FPartly cloudy.23 mph87%29.45 "Hg15 mi
10:00 pm46 °FPassing clouds.23 mph87%29.49 "Hg15 mi
9:00 pm46 °FPassing clouds.22 mph87%29.52 "Hg15 mi
8:00 pm46 °FPassing clouds.17 mph87%29.56 "Hg15 mi
7:00 pm46 °FPassing clouds.23 mph82%29.57 "Hg15 mi
6:00 pm46 °FPassing clouds.21 mph82%29.62 "Hg15 mi
5:00 pm46 °FPartly sunny.21 mph82%29.65 "Hg20 mi
4:00 pm48 °FPartly sunny.21 mph76%29.68 "Hg20 mi
3:00 pm50 °FPartly sunny.16 mph76%29.72 "Hg20 mi
2:00 pm48 °FScattered clouds.13 mph82%29.75 "Hg20 mi
1:00 pm48 °FPartly sunny.14 mph82%29.77 "Hg20 mi
12:00 pm46 °FScattered clouds.10 mph87%29.79 "Hg20 mi
Weather by CustomWeather, © 2020

See weather overview

Advertising